K9JM Weather Reports


time (UTC)temp
C
wind
direction
speed
KPH
gust
KPH
rain 1hr
cm
rain 24hr
cm
rain mn
cm
humidity
%
barometer
mb
20260903160036 15 135 1.6 6.4 0.00 0.00 0.00 68 1015.1
20260903154517 15 113 1.6 6.4 0.00 0.00 0.00 70 1015.3
20260903153016 15 113 1.6 4.8 0.00 0.00 0.00 70 1015.4
20260903151516 15 113 1.6 8.0 0.00 0.00 0.00 70 1015.1
20260903150016 15 113 1.6 6.4 0.00 0.00 0.00 69 1015.2
20260903144516 14 113 1.6 4.8 0.00 0.00 0.00 68 1015.1
20260903143016 14 0.0 4.8 0.00 0.00 0.00 69 1015.2
20260903141516 14 113 1.6 3.2 0.00 0.00 0.00 70 1015.0
20260903140016 14 0.0 3.2 0.00 0.00 0.00 68 1015.0
20260903134516 14 0.0 0.0 0.00 0.00 0.00 67 1014.9
20260903133016 14 0.0 1.6 0.00 0.00 0.00 67 1015.0
20260903131516 14 90 1.6 4.8 0.00 0.00 0.00 67 1015.0
20260903130017 14 90 1.6 3.2 0.00 0.00 0.00 67 1015.1
20260903124516 14 113 1.6 3.2 0.00 0.00 0.00 68 1015.1
20260903123016 14 0.0 3.2 0.00 0.00 0.00 69 1015.2
20260903121516 14 90 1.6 4.8 0.00 0.00 0.00 69 1015.4
20260903120016 14 90 1.6 6.4 0.00 0.00 0.00 69 1015.6
20260903114516 14 90 1.6 6.4 0.00 0.00 0.00 68 1015.6
20260903113016 14 0.0 8.0 0.00 0.00 0.00 69 1015.7
20260903111516 14 113 1.6 6.4 0.00 0.00 0.00 71 1015.8
20260903110016 14 0.0 3.2 0.00 0.00 0.00 72 1016.1
20260903104516 14 0.0 4.8 0.00 0.00 0.00 74 1016.1
20260903103016 14 0.0 4.8 0.00 0.00 0.00 74 1015.8
20260903101556 14 0.0 4.8 0.00 0.00 0.00 74 1016.0
20260903100016 14 113 1.6 6.4 0.00 0.00 0.00 75 1016.0
20260903094516 15 0.0 4.8 0.00 0.00 0.00 75 1016.1
20260903093036 15 135 1.6 6.4 0.00 0.00 0.00 74 1016.1
20260903091516 15 113 1.6 6.4 0.00 0.00 0.00 73 1016.2
20260903090016 15 0.0 6.4 0.00 0.00 0.00 73 1016.2
20260903084516 15 0.0 4.8 0.00 0.00 0.00 73 1016.1
20260903083016 15 113 1.6 4.8 0.00 0.00 0.00 74 1016.3
20260903081516 15 0.0 3.2 0.00 0.00 0.00 75 1016.4
20260903080016 15 0.0 1.6 0.00 0.00 0.00 74 1016.5
20260903074516 15 0.0 1.6 0.00 0.00 0.00 73 1016.6
20260903073036 15 0.0 1.6 0.00 0.00 0.00 72 1016.4
20260903071536 15 0.0 3.2 0.00 0.00 0.00 72 1016.7
20260903070016 15 0.0 3.2 0.00 0.00 0.00 72 1016.5
20260903064517 15 0.0 1.6 0.00 0.00 0.00 73 1016.6
20260903063017 15 0.0 1.6 0.00 0.00 0.00 74 1016.8
20260903061537 15 0.0 1.6 0.00 0.00 0.00 74 1017.0
20260903060017 15 0.0 1.6 0.00 0.00 0.00 74 1017.0
20260903054517 16 0.0 0.0 0.00 0.00 0.00 73 1017.1
20260903053017 16 0.0 0.0 0.00 0.00 0.00 73 1017.0
20260903051517 16 0.0 0.0 0.00 0.00 0.00 72 1017.2
20260903050017 16 0.0 0.0 0.00 0.00 0.00 71 1017.2
20260903044537 16 0.0 0.0 0.00 0.00 0.00 71 1017.2
20260903043017 16 0.0 0.0 0.00 0.00 0.00 70 1016.9
20260903041517 16 0.0 0.0 0.00 0.00 0.00 70 1016.7
20260903040017 16 0.0 0.0 0.00 0.00 0.00 69 1016.2
20260903034517 16 0.0 0.0 0.00 0.00 0.00 68 1016.1
20260903033017 17 0.0 0.0 0.00 0.00 0.00 67 1016.0
20260903031517 17 0.0 0.0 0.00 0.00 0.00 66 1016.0
20260903030017 17 0.0 0.0 0.00 0.00 0.00 65 1015.8
20260903024517 18 0.0 0.0 0.00 0.00 0.00 62 1015.9
20260903023017 18 0.0 3.2 0.00 0.00 0.00 61 1015.9
20260903021517 18 0.0 3.2 0.00 0.00 0.00 62 1016.1
20260903020017 18 0.0 1.6 0.00 0.00 0.00 62 1016.2
20260903014517 18 0.0 4.8 0.00 0.00 0.00 62 1016.2
20260903013037 19 0.0 4.8 0.00 0.00 0.00 61 1016.2
20260903011517 20 0.0 3.2 0.00 0.00 0.00 59 1016.4
20260903010017 20 113 1.6 6.4 0.00 0.00 0.00 58 1016.4
20260903004517 20 0.0 6.4 0.00 0.00 0.00 58 1016.4
20260903003017 20 0.0 6.4 0.00 0.00 0.00 58 1016.6
20260903001516 20 225 1.6 6.4 0.00 0.00 0.00 56 1016.6
20260903000016 20 135 1.6 4.8 0.00 0.00 0.00 59 1016.7
20260902234516 19 0.0 6.4 0.00 0.00 0.00 59 1016.6
20260902233017 20 0.0 4.8 0.00 0.00 0.00 60 1016.8
20260902231516 20 0.0 9.7 0.00 0.00 0.00 59 1016.9
20260902230017 20 135 1.6 6.4 0.00 0.00 0.00 59 1017.2
20260902224517 20 0.0 3.2 0.00 0.00 0.00 60 1017.3
20260902223017 21 0.0 4.8 0.00 0.00 0.00 58 1017.4
20260902221516 20 225 1.6 6.4 0.00 0.00 0.00 60 1017.4
20260902220016 20 135 1.6 8.0 0.00 0.00 0.00 61 1017.3
20260902214517 19 248 1.6 3.2 0.00 0.00 0.00 63 1017.4
20260902213016 19 225 1.6 6.4 0.00 0.00 0.00 63 1017.6
20260902211537 19 0.0 6.4 0.00 0.00 0.00 65 1017.6
20260902210016 18 0.0 3.2 0.00 0.00 0.00 68 1017.6
20260902204517 18 0.0 4.8 0.00 0.00 0.00 68 1017.6
20260902203016 18 0.0 3.2 0.00 0.00 0.00 68 1017.8
20260902201516 18 0.0 6.4 0.00 0.00 0.00 67 1017.9
20260902200017 18 0.0 4.8 0.00 0.00 0.00 67 1018.1
20260902194516 18 0.0 4.8 0.00 0.00 0.00 66 1018.1
20260902193016 18 0.0 3.2 0.00 0.00 0.00 65 1018.5
20260902191516 18 270 1.6 8.0 0.00 0.00 0.00 64 1018.5
20260902190016 18 0.0 3.2 0.00 0.00 0.00 64 1018.6
20260902184516 18 0.0 4.8 0.00 0.00 0.00 64 1018.7
20260902183036 18 135 1.6 4.8 0.00 0.00 0.00 63 1018.5
20260902181517 18 113 3.2 11.3 0.00 0.00 0.00 61 1018.5
20260902180016 19 113 3.2 9.7 0.00 0.00 0.00 59 1018.7
20260902174517 18 180 1.6 6.4 0.00 0.00 0.00 59 1018.6
20260902173016 18 113 1.6 9.7 0.00 0.00 0.00 60 1018.6
20260902171516 17 135 1.6 9.7 0.00 0.00 0.00 63 1018.4
20260902170016 17 113 3.2 8.0 0.00 0.00 0.00 61 1018.3
20260902164516 18 113 3.2 8.0 0.00 0.00 0.00 59 1018.1
20260902163016 17 135 1.6 8.0 0.00 0.00 0.00 60 1018.0
20260902161536 16 90 3.2 8.0 0.00 0.00 0.00 63 1017.9